ALSAT 1B (41785 NORAD) Tracking and Keplerian Element Data

This shows tracking and keplerian element data for the satellite.

Feedback or suggestion? Click here.




ElementValue
Catalog41785
NameALSAT 1B
Epoch Orbit44731
Epoch Day35.17243333
Epoch Year2025
RAAN60.1283
Inclination97.8002
Eccentricity0.0010173
Argument of Perigee34.1299
Mean Anonmoly326.0561
Mean Motion14.7159553
Decay Rate1.06E-05
L11 41785U 16059C 25035.17243333 .00001060 00000+0 17787-3 0 9996
L22 41785 97.8002 60.1283 0010173 34.1299 326.0561 14.71595530447315



Live tracking and technical data element details for ALSAT 1B (NORAD 41785). ALSAT 1B can be tracked NOW for your location showing map with azimuth and elevation plus other details from your city location.







IsCatalogInMostPopularTable: catalog: 41785, numindb: 435
Update: records affected: 1



GetName: 41785 ALSAT 1B

Hit Count: updated at: Sat, 24 May 2025 16:30:23 GMT